ICEYE-X48

operational
NORAD ID: 63253 Int'l Des: 2025-052 Owner: ICEUS Country: US
LEOCIRCULARRETROGRADESSO

ICEYE-X48について

説明を読み込み中...

リアルタイム位置

3D地球を読み込み中...

次回通過

高度履歴

Altitude vs Time

uPlot chart will show altitude changes over time

軌道要素

1 63253U 25052AV 26061.15614662 .00003715 00000-0 32543-3 0 9995
2 63253 97.7002 314.9578 0001621 172.3773 187.7474 14.97285923 52659
Epoch: Mar 2, 2026 • Age: 31 hours

現在のステータス

高度 579.9 km
速度 7.57 km/s
衛星直下点 29.31°N, 43.5°E
打ち上げ日 Mar 15, 2025
運用期間 0.9 years
タイプ earth observation

技術仕様

分類 Payload
質量 80.00 kg
乾燥質量 80.00 kg
総質量 80.00 kg
長さ 0.80 m
直径 0.60 m
スパン 1.50 m
形状 Box + pan
製造者 ICEYE
バスタイプ ICEYE
フェーズステータス In Orbit
所有者/国 ICEUS/US

大規模コンステレーション

Loading constellations...